Regional Weather Roundup
Issued by NWS

Home | Current Version | Previous Version | Text Only | Print | Product List | Glossary On
Versions: 1 2 3 4 5 6 7 8 9 10 11 12 13 14 15 16 17 18 19 20 21 22 23 24 25 26 27 28 29 30 31 32 33 34 35 36 37 38 39 40 41 42 43 44 45 46 47 48 49 50
000
ASUS44 KJAN 251110
RWRMS

MISSISSIPPI HOURLY WEATHER ROUNDUP
NATIONAL WEATHER SERVICE JACKSON MS
600 AM CDT FRI JUL 25 2014

NOTE: "FAIR: INDICATES FEW OR NO CLOUDS BELOW 12,000 FEET WITH NO
SIGNIFICANT WEATHER AND/OR OBSTRUCTIONS TO VISIBILITY.

MSZ001>002-007>008-010>013-018>021-025>028-034>036-251200-
NORTHWEST MISSISSIPPI

CITY           SKY/WX    TMP DP  RH WIND       PRES   REMARKS
CLARKSDALE     FAIR      59  59 100 CALM      30.05R
CLEVELAND      FAIR      61  61 100 CALM      30.02S
GREENWOOD      CLEAR     63  61  93 CALM      30.03R FOG
GREENVILLE     CLEAR     62  61  96 CALM      30.02S
GRENADA        FAIR      59  59 100 CALM      30.03S
OLIVE BRANCH   CLEAR     63  63 100 CALM      30.04R
OXFORD         FAIR      57  57 100 CALM      30.05S
TUNICA         FOG       61  61 100 CALM      30.04R VSB 3/4
$$

MSZ003>006-009-014>017-022>024-029>033-037>039-251200-
NORTHEAST MISSISSIPPI

CITY           SKY/WX    TMP DP  RH WIND       PRES   REMARKS
BELMONT        FAIR      60  59  98 CALM      30.03R
COLUMBUS AFB   CLEAR     62  62 100 N1        30.03R
CORINTH        FAIR      61  59  94 CALM      30.04R FOG
GOLDN TRIANGLE CLEAR     63  59  88 NW5       30.03R
STARKVILLE     FAIR      61  59  94 CALM      30.02S
TUPELO         CLEAR     62  60  93 CALM      30.03R
$$

MSZ040-058-251200-
CENTRAL MISSISSIPPI

CITY           SKY/WX    TMP DP  RH WIND       PRES   REMARKS
JACKSON INTL   CLEAR     69  67  93 CALM      30.02R
JACKSON HAWKNS CLEAR     71  66  84 CALM      30.02R
MERIDIAN KEY   CLEAR     69  68  96 CALM      30.02R
MERIDIAN NAS   CLEAR     68  66  93 CALM      30.02R
RAYMOND        FAIR      68  64  88 CALM      30.02S FOG
VICKSBURG      CLEAR     67  65  93 CALM      30.01F
$$

MSZ059>079-251200-
SOUTH MISSISSIPPI

CITY           SKY/WX    TMP DP  RH WIND       PRES   REMARKS
BROOKHAVEN     FAIR      72  72 100 N3        30.04R FOG
COLUMBIA       FAIR      70  70 100 CALM      30.00R FOG
HATTIESBURG    CLEAR     74  73  97 CALM      30.01R FOG
MCCOMB         PTCLDY    73  71  93 NW3       30.02R
NATCHEZ        CLEAR     72  70  94 CALM      30.03R
PINE BELT      CLEAR     73  70  88 CALM      30.02R
$$

MSZ080>082-251200-
COASTAL MISSISSIPPI

CITY           SKY/WX    TMP DP  RH WIND       PRES   REMARKS
BILOXI         CLEAR     77  75  92 CALM      29.99R
PASCAGOULA     PTCLDY    72  71  97 CALM      30.00R
GULFPORT       CLEAR     78  74  87 SW3       29.98R
$$


USA.gov is the U.S. government's official web portal to all federal, state and local government web resources and services.